{"data":{"norad_id":64533,"intl_designator":"2025-135F","name":"TPA-1","alt_names":[],"object_type":"PAYLOAD","status":"ACTIVE","operator":null,"country":"NZ","launch_date":"2025-06-23","launch_site_code":"AFWTR","launch_vehicle":null,"mission":null,"orbit_class":"UNKNOWN","rcs_meters":null,"size_class":null,"mass_kg":null,"dimensions":null,"purposes":[],"wikipedia_slug":null,"has_3d_model":false,"image_url":null,"decayed_at":null,"tle_current":{"epoch":"2026-09-21T20:29:01.015008Z","epoch_age_seconds":64804,"freshness":"FRESH","line1":"1 64533U 25135F   26264.85348397  .00002484  00000+0  11057-3 0  9998","line2":"2 64533  97.4764  19.1443 0004700 193.1583 166.9531 15.22400222 69559","mean_motion":15.22400222,"eccentricity":0.00047,"inclination_deg":97.4764,"raan_deg":19.1443,"arg_perigee_deg":193.1583,"mean_anomaly_deg":166.9531,"bstar":0.00011057,"rev_number":6955,"period_min":94.587479638452,"perigee_km":495.37110634586,"apogee_km":501.83524210963,"semimajor_km":6876.7401742277,"source":"CELESTRAK","updated_at":"2026-09-22T09:00:29.816271Z"}}}